This is the latest recevied weather packets stored in our database for station/object KB1JDX. If no packets are shown the sender has not sent any weather packets the latest 10 day(s).
| Time | Temp. | Humidity | Pressure | Rain* | Wind** | Luminosity | Snow |
|---|---|---|---|---|---|---|---|
| 1778005235 | 25.56° C | 48% | 1008.2 hPa | 0 mm | 0.45 m/s, 232° | - | - |
| 1778005166 | 25.56° C | 48% | 1008.2 hPa | 0 mm | 0.45 m/s, 194° | - | - |
| 1778004036 | 25° C | 48% | 1008.4 hPa | 0 mm | 3.13 m/s, 230° | - | - |
| 1778002836 | 24.44° C | 48% | 1008.8 hPa | 0 mm | 0 m/s | - | - |
| 1778001635 | 23.89° C | 52% | 1009 hPa | 0 mm | 2.68 m/s, 254° | - | - |
| 1778001566 | 23.89° C | 53% | 1009.1 hPa | 0 mm | 0.45 m/s, 173° | - | - |
| 1778000436 | 23.33° C | 53% | 1009.4 hPa | 0 mm | 0.89 m/s, 192° | - | - |
| 1777999236 | 23.33° C | 54% | 1009.5 hPa | 0 mm | 4.92 m/s, 216° | - | - |
| 1777998036 | 23.33° C | 57% | 1009.7 hPa | 0 mm | 2.24 m/s, 187° | - | - |
| 1777997966 | 23.33° C | 56% | 1009.7 hPa | 0 mm | 0 m/s | - | - |
| 1777996836 | 23.33° C | 56% | 1009.9 hPa | 0 mm | 3.58 m/s, 182° | - | - |
| 1777995635 | 22.78° C | 57% | 1010.1 hPa | 0 mm | 0.45 m/s, 229° | - | - |
| 1777994436 | 21.11° C | 61% | 1010.3 hPa | 0 mm | 1.34 m/s, 227° | - | - |
| 1777994366 | 21.11° C | 60% | 1010.3 hPa | 0 mm | 0 m/s | - | - |
| 1777993234 | 19.44° C | 64% | 1010.4 hPa | 0 mm | 0 m/s | - | - |
| 1777992034 | 17.78° C | 64% | 1010.5 hPa | 0 mm | 0 m/s | - | - |
| 1777990834 | 17.22° C | 64% | 1010.3 hPa | 0 mm | 1.79 m/s, 190° | - | - |
| 1777990766 | 17.22° C | 64% | 1010.3 hPa | 0 mm | 0 m/s | - | - |
| 1777989635 | 17.22° C | 62% | 1010.6 hPa | 0 mm | 0 m/s | - | - |
| 1777988434 | 16.67° C | 62% | 1010.7 hPa | 0 mm | 0 m/s | - | - |
| 1777987234 | 15.56° C | 55% | 1011 hPa | 0 mm | 0 m/s | - | - |
| 1777987166 | 15.56° C | 54% | 1011 hPa | 0 mm | 0 m/s | - | - |
| 1777986035 | 14.44° C | 48% | 1011.1 hPa | 0 mm | 0 m/s | - | - |
| 1777984834 | 13.89° C | 37% | 1011.2 hPa | 0 mm | 0 m/s | - | - |
| 1777983634 | 12.78° C | 25% | 1011.3 hPa | 0 mm | 0 m/s | - | - |
* Rain latest hour (hover to see other rain measurements)
** Current wind speed in m/s (hover to see current wind gust speed)